Content
SEND FEEDBACK

Daily
Averages
Monthly
Summary
Russia

VORONEZ, RUSSIA


Home > Europe > Russia
Elevation: 489 feet     Latitude: 51 42N     Longitude: 039 13E

WEATHER
 
SELECT A DAY
Number of Records: 146,376;   Date Range: 3/24/97 - 10/24/14
 
SHARE

PRINT THIS DATA

[ ← Previous Day ]
WEATHER ALMANAC - JANUARY 23, 2013
[ Next Day → ]
[ °C ]   °F
Weather ElementAverageHighLow
Temperature10 °F17.6 °F (3:00 pm)3.2 °F (4:30 am)
Dewpoint5.1 °F12.2 °F (7:30 pm)-0.4 °F (3:00 am)
Humidity80.8 %86 % (7:30 pm)68 % (2:30 pm)
Barometer29.78 in29.83 in (12:30 am)29.71 in (8:00 pm)
Wind Speed4.8 mph6.7 mph (12:00 pm)
Weather ElementAverage
Visibility5.3 mi
Wind DirectionNNE (27.5 °)

Weather ElementTotal
Precipitation---
Heating Degree Days54.6 (Base 65)
Averaged from 48 records on January 23, 2013
WEATHER CONDITIONS BREAKOUT
WIND DIRECTION BREAKOUT
WEATHER BY HOUR - JANUARY 23, 2013
[ °C ]   °F
Local TimeTemperatureDewpointHumidityBarometerVisibilityWind DirectionWind SpeedGust SpeedPrecipitationEventsConditions
12:30 AM5.0 °F1.4 °F85 %29.83 in5.0 miVariable2.2 mphMostly Cloudy
1:00 AM5.0 °F1.4 °F85 %29.83 in5.6 miVariable2.2 mphMostly Cloudy
1:30 AM5.0 °F1.4 °F85 %29.83 in5.6 miVariable4.5 mphMostly Cloudy
2:00 AM5.0 °F1.4 °F85 %29.83 in5.6 miVariable4.5 mphMostly Cloudy
2:30 AM5.0 °F1.4 °F85 %29.83 in5.6 miVariable2.2 mphMostly Cloudy
3:00 AM5.0 °F-0.4 °F78 %29.83 inVariable4.5 mphClear
3:30 AM5.0 °F-0.4 °F78 %29.83 in5.6 miVariable2.2 mphMostly Cloudy
4:00 AM5.0 °F-0.4 °F78 %29.83 in5.6 miENE (60°)4.5 mphMostly Cloudy
4:30 AM3.2 °F-0.4 °F85 %29.83 in5.0 miVariable2.2 mphMostly Cloudy
5:00 AM3.2 °F-0.4 °F85 %29.83 in5.6 miVariable2.2 mphMostly Cloudy
5:30 AM3.2 °F-0.4 °F85 %29.80 in5.0 miVariable4.5 mphMostly Cloudy
6:00 AM3.2 °F-0.4 °F85 %29.80 in5.6 miVariable4.5 mphMostly Cloudy
6:30 AM3.2 °F-0.4 °F85 %29.80 in5.6 miVariable2.2 mphMostly Cloudy
7:00 AM3.2 °F-0.4 °F85 %29.80 in5.6 miVariable2.2 mphMostly Cloudy
7:30 AM3.2 °F-0.4 °F85 %29.80 in5.6 miVariable4.5 mphMostly Cloudy
8:00 AM3.2 °F-0.4 °F85 %29.80 inVariable2.2 mphClear
8:30 AM3.2 °F-0.4 °F85 %29.80 inVariable4.5 mphClear
9:00 AM3.2 °F-0.4 °F85 %29.80 inVariable2.2 mphClear
9:30 AM3.2 °F-0.4 °F85 %29.80 in6.2 miVariable4.5 mphMostly Cloudy
10:00 AM3.2 °F-0.4 °F85 %29.80 inVariable4.5 mphClear
10:30 AM3.2 °F-0.4 °F85 %29.80 in5.6 miVariable4.5 mphMostly Cloudy
11:00 AM5.0 °F1.4 °F85 %29.80 inVariable4.5 mphClear
11:30 AM6.8 °F3.2 °F85 %29.80 inVariable4.5 mphClear
12:00 PM6.8 °F1.4 °F79 %29.80 inESE (110°)6.7 mphClear
12:30 PM8.6 °F3.2 °F79 %29.80 inVariable4.5 mphClear
1:00 PM10.4 °F5.0 °F79 %29.80 in5.6 miVariable4.5 mphMostly Cloudy
1:30 PM12.2 °F6.8 °F79 %29.77 inVariable4.5 mphClear
2:00 PM14.0 °F6.8 °F73 %29.77 inENE (60°)4.5 mphClear
2:30 PM15.8 °F6.8 °F68 %29.77 inNE (50°)6.7 mphClear
3:00 PM17.6 °F8.6 °F68 %29.74 inENE (70°)4.5 mphClear
3:30 PM17.6 °F8.6 °F68 %29.74 inESE (110°)4.5 mphClear
4:00 PM17.6 °F8.6 °F68 %29.74 inENE (70°)4.5 mphClear
4:30 PM17.6 °F10.4 °F73 %29.74 inENE (70°)4.5 mphClear
5:00 PM17.6 °F10.4 °F73 %29.74 in6.2 miENE (60°)6.7 mphOvercast
5:30 PM17.6 °F10.4 °F73 %29.74 in6.2 miENE (60°)6.7 mphOvercast
6:00 PM17.6 °F10.4 °F73 %29.74 in6.2 miENE (60°)6.7 mphOvercast
6:30 PM17.6 °F10.4 °F73 %29.74 in6.2 miNE (50°)6.7 mphOvercast
6:57 PM17.6 °F10.4 °F73 %29.74 inNE (50°)6.7 mphSnowLight Snow
7:00 PM17.6 °F10.4 °F73 %29.74 inNE (50°)6.7 mphSnowLight Snow
7:30 PM15.8 °F12.2 °F86 %29.74 in6.2 miNE (50°)6.7 mphSnowLight Snow
8:00 PM15.8 °F12.2 °F86 %29.71 in1.8 miENE (60°)6.7 mphSnowLight Snow
8:30 PM15.8 °F12.2 °F86 %29.71 in3.1 miNE (50°)6.7 mphSnowLight Snow
9:00 PM15.8 °F12.2 °F86 %29.71 inNE (50°)6.7 mphSnowLight Snow
9:30 PM15.8 °F12.2 °F86 %29.71 in3.7 miNE (50°)6.7 mphSnowLight Snow
10:00 PM15.8 °F12.2 °F86 %29.71 in5.6 miVariable4.5 mphSnowLight Snow
10:30 PM15.8 °F12.2 °F86 %29.71 in5.6 miNE (40°)6.7 mphSnowLight Snow
11:00 PM15.8 °F12.2 °F86 %29.71 in5.6 miNE (50°)6.7 mphSnowLight Snow
11:30 PM15.8 °F12.2 °F86 %29.71 in3.1 miNE (40°)6.7 mphSnowLight Snow
Hourly data recorded from UUOO, located miles away from Voronez, Russia







STORIES FROM OUR PARTNERS